Miscellaneous Local Product
Issued by NWS North Platte, NE

Home | Current Version | Previous Version | Text Only | Print | Product List | Glossary On
Versions: 1 2 3 4 5 6 7 8 9 10 11 12 13 14 15 16 17 18 19 20 21 22 23 24 25 26 27 28 29 30 31 32 33 34 35 36 37 38 39 40 41 42 43 44 45 46 47 48 49 50
000
AXUS43 KLBF 260310
MISLBF


WESTERN AND NORTH CENTRAL NEBRASKA HOURLY WEATHER ROUNDUP
NATIONAL WEATHER SERVICE NORTH PLATTE NE
1000 PM CDT SAT OCT 25 2014

***STATIONS NOT REPORTING VARIABLES SUCH AS SKY/WEATHER OR
PRESSURE ARE PROVIDED BY THE NEBRASKA DEPARTMENT OF
ROADS...RAWS...AND APRS NETWORKS...AND ARE NOT UNDER
NATIONAL WEATHER SERVICE QUALITY CONTROL***

...OBSERVATIONS IN AND NEAR THE EASTERN PANHANDLE OF NEBRASKA...

CITY           SKY/WX    TMP DP  RH WIND       PRES   REMARKS
PINE RIDGE     CLEAR     62  38  40 SE10G22   29.92F
CHADRON        CLEAR     56  37  49 S8        29.88F
ALLIANCE       CLEAR     47  34  60 SE9       29.98S
SIDNEY         CLEAR     50  36  58 S8        30.00F
WHITECLAY        N/A     52  35  51 SE13        N/A
RUSHVILLE        N/A     51  35  55 S14         N/A
CRESCENT LAKE    N/A     55  36  49 SE5         N/A
LISCO            N/A     55  34  44 E5          N/A
BIG SPRINGS      N/A     56  40  55 CALM        N/A
LEWELLEN         N/A     48  40  73 E3          N/A
$$

...OBSERVATIONS IN NORTH CENTRAL NEBRASKA...

CITY           SKY/WX    TMP DP  RH WIND       PRES   REMARKS
VALENTINE      CLEAR     53  34  48 E8        29.99F
THEDFORD       CLEAR     53  42  65 SE7       29.99F
AINSWORTH      CLEAR     47  36  66 E8        30.01F
O`NEILL        CLEAR     51  37  57 E7        30.04S
ORD            CLEAR     43  39  86 CALM      30.00S
BROKEN BOW     CLEAR     56  42  59 E5        30.01S
BROWNLEE         N/A     54  38  54 E12         N/A
SPRINGVIEW       N/A     48  37  66 E3          N/A
BREWSTER         N/A     49  41  74 E6          N/A
ROSE             N/A     56  41  58 E9          N/A
NEWPORT          N/A     42  34  73 SE8         N/A
SARGENT          N/A     52  41  67 CALM        N/A
COMSTOCK         N/A     57  43  58 E6          N/A
CHAMBERS         N/A     53  33  47 E3          N/A
$$

...OBSERVATIONS IN SOUTHWEST NEBRASKA AND FAR NORTHEAST COLORADO...

CITY           SKY/WX    TMP DP  RH WIND       PRES   REMARKS
WRAY           FAIR      53  35  50 CALM      29.97F
HOLYOKE        FAIR      52  37  58 NE3       29.99S
IMPERIAL       CLEAR     60  48  64 E6        29.97S
OGALLALA       CLEAR     55  47  74 E3        29.98S
NORTH PLATTE   CLEAR     50  43  77 E8        29.99S
MCCOOK         CLEAR     61  52  72 E10       29.95F
LEXINGTON      CLEAR     59  46  62 E10       29.98S
PAXTON           N/A     58  47  66 CALM        N/A
SUTHERLAND       N/A     51  44  75 E6          N/A
BRADY            N/A     53  44  72 CALM        N/A
GOTHENBURG       N/A     58  43  58 E3          N/A
CALLAWAY         N/A     60  47  63 E10         N/A
$$

...SOME WEATHER OBSERVATIONS FROM AROUND THE REGION...

CITY           SKY/WX    TMP DP  RH WIND       PRES   REMARKS
DENVER         CLEAR     52  25  35 S12       30.02F
LARAMIE        PTCLDY    47  22  37 S13       30.11F
CHEYENNE       CLEAR     58  20  22 S5        30.07F
SCOTTSBLUFF    CLEAR     48  37  65 E8        29.97F
RAPID CITY     CLEAR     49  37  63 S8        29.90F
PIERRE         CLEAR     51  34  52 SE13      29.97F
WINNER         FAIR      49  33  54 SE13      29.99F
SIOUX FALLS    CLEAR     42  35  76 CALM      30.06F
OMAHA          CLEAR     59  41  51 CALM      30.04S
GRAND ISLAND   CLEAR     58  44  60 E8        30.00F
KANSAS CITY    CLEAR     68  50  52 E10       30.00F
WICHITA        CLEAR     71  60  68 S10       29.95F
HAYS           CLEAR     61  48  63 SE3       29.93S
LIBERAL        CLEAR     68  45  42 S10       29.99S
GOODLAND       CLEAR     54  40  59 S6        29.96F
$$



USA.gov is the U.S. government's official web portal to all federal, state and local government web resources and services.